Theta_e
329 331 332 333 333 333 333 333 333 333 332 331 330 328 326 325 325 324 322 317 313 310 304 296 293 292 291 290 290 290 290 291 292 291 290 289 288 288 287 287 286 285 285
326 327 329 330 331 332 333 333 333 333 332 331 330 328 325 324 324 323 320 314 311 305 299 293 292 291 290 290 290 290 290 289 291 291 290 289 288 288 287 287 286 285 285
315 321 324 327 329 331 331 332 332 332 331 329 328 326 324 322 321 319 318 313 311 302 297 292 291 290 290 289 289 290 290 289 289 289 289 289 288 288 287 286 285 285 285
310 311 316 323 326 328 329 328 328 329 329 328 326 324 323 319 318 317 313 308 306 298 293 291 291 290 290 289 289 289 289 288 289 288 288 288 288 287 286 286 285 284 284
311 310 312 320 323 324 324 324 323 323 325 325 324 321 316 314 312 311 313 305 300 294 291 290 290 289 289 289 289 289 288 288 288 288 288 288 288 287 286 284 283 283 284
311 311 311 313 317 318 318 319 320 321 321 320 318 317 315 309 308 308 303 302 296 292 290 289 289 289 288 288 288 288 287 288 288 288 288 288 287 287 286 284 283 283 283
310 310 311 311 313 314 314 315 316 315 315 313 311 309 308 305 303 303 304 301 292 291 290 289 288 288 288 287 287 288 287 287 287 286 286 286 287 286 285 284 283 282 282
308 308 308 309 308 307 307 307 308 309 309 307 306 305 303 301 300 298 297 298 292 290 289 288 288 287 287 286 286 285 285 286 286 285 285 284 284 285 284 284 283 281 281
306 306 306 306 305 304 303 305 304 305 305 304 303 301 299 298 295 296 295 293 289 289 288 288 288 287 286 286 286 286 285 285 285 284 284 284 284 285 285 284 283 282 282
303 303 304 304 304 305 305 303 301 300 300 298 296 296 296 294 293 294 293 290 288 288 287 287 287 286 286 285 285 285 285 285 285 285 284 283 284 284 284 285 283 282 281
301 302 302 303 303 303 301 300 298 296 294 292 292 292 292 293 292 290 289 288 287 287 286 286 285 285 285 284 284 285 286 285 285 285 284 284 284 284 284 284 284 283 282
298 299 299 299 300 300 299 298 295 294 291 289 288 288 288 289 289 287 287 286 286 287 286 286 285 285 284 284 284 285 285 285 285 284 283 284 284 283 283 284 283 283 282
295 295 295 296 297 297 295 293 291 290 289 288 287 287 287 288 288 288 287 286 285 285 285 285 284 284 284 284 284 284 284 284 284 283 283 282 282 283 284 284 283 282 282
294 293 292 292 292 291 291 291 290 289 288 287 286 286 285 286 287 287 286 285 285 285 284 284 284 284 283 284 283 283 283 283 282 281 280 281 281 282 282 282 281 281 281
291 291 291 291 290 290 289 289 288 288 288 287 287 286 285 284 285 286 286 285 284 284 283 283 283 283 283 282 283 282 282 281 280 279 279 279 279 279 279 280 280 281 280
288 288 287 287 287 287 287 286 285 285 286 286 286 285 284 285 285 285 285 285 284 283 282 282 283 284 283 283 282 281 280 279 278 277 278 278 279 278 278 278 278 279 280
286 286 286 285 285 285 285 284 284 283 283 284 284 285 286 287 285 284 284 284 283 282 282 284 284 283 283 282 281 280 279 278 277 276 276 276 276 276 276 276 276 276 278
284 284 284 284 283 283 283 283 283 283 282 283 283 283 283 283 283 283 283 283 282 283 283 283 283 282 281 280 279 279 277 276 275 275 274 274 273 273 274 274 274 275 276
282 282 282 282 282 282 282 282 282 282 282 282 282 282 282 283 283 283 283 283 283 283 283 281 281 280 279 278 278 276 276 275 274 274 272 272 272 271 271 272 272 273 273
280 280 281 281 281 281 281 281 281 281 281 281 281 281 281 282 283 284 284 284 283 282 281 280 279 279 278 277 276 274 273 273 272 272 271 271 270 270 270 270 270 270 271
278 278 279 279 279 280 280 280 280 280 280 281 281 281 281 281 281 282 282 281 281 280 280 279 278 276 275 274 273 273 273 272 272 271 270 270 269 269 269 268 268 268 269
277 277 277 277 277 278 278 279 280 280 280 281 280 280 279 279 280 280 280 280 279 278 277 276 275 275 274 274 273 273 272 271 271 270 269 269 268 268 268 267 267 268 268
275 276 276 276 276 276 276 276 276 277 277 277 277 277 277 277 277 277 276 276 275 275 274 274 273 273 272 272 271 271 270 270 270 269 268 268 267 267 267 266 267 267 267
273 273 273 272 273 273 273 274 274 274 274 274 274 274 274 274 274 274 274 273 273 273 272 272 272 271 271 270 270 269 269 269 268 268 267 267 266 266 266 266 266 266 266
271 271 271 271 271 271 271 271 271 271 271 271 271 271 271 271 271 271 271 271 271 270 270 270 270 269 269 268 268 268 267 267 267 267 266 265 265 265 265 264 265 265 266
269 269 269 269 269 269 269 269 269 269 269 269 269 269 269 268 268 268 269 269 268 268 268 268 268 267 267 267 267 266 266 266 266 265 265 264 264 263 264 264 264 264 265
Wind_Speed
34 38 37 38 40 39 39 40 42 39 40 40 39 38 42 41 37 36 34 32 29 27 27 26 24 21 19 17 15 14 13 12 7 4 7 6 2 2 3 4 1 4 6
32 34 35 37 36 36 39 39 37 40 40 40 40 39 40 42 41 40 38 36 32 31 30 28 26 23 20 18 17 16 13 11 9 10 8 7 4 5 4 4 2 3 6
27 28 31 35 34 37 39 37 36 38 40 39 39 39 38 43 44 42 41 39 35 34 34 32 29 25 23 21 19 17 14 12 10 8 7 7 4 6 4 5 5 4 5
22 26 24 25 28 30 32 34 35 35 36 37 37 35 36 42 44 43 40 37 35 35 34 32 29 27 25 23 21 18 16 14 11 9 7 6 7 6 5 7 7 6 7
19 21 26 24 25 27 29 30 32 34 36 35 33 35 36 40 43 44 43 40 37 34 33 30 28 25 24 22 22 21 18 16 14 10 10 8 9 9 7 6 7 10 11
16 17 18 20 22 23 25 27 27 31 32 32 33 34 35 38 42 45 41 39 38 37 35 31 26 26 25 23 21 19 17 17 16 14 13 12 12 10 8 6 5 5 4
15 15 15 15 16 20 22 23 24 26 27 28 29 30 32 35 38 39 40 35 36 35 36 33 29 27 24 22 21 18 18 16 13 11 13 14 13 12 10 9 7 8 11
13 14 14 15 15 16 16 18 21 21 22 23 24 26 28 32 33 36 33 30 33 31 29 29 29 26 24 22 20 19 18 15 13 12 13 14 15 14 12 10 9 10 14
9 11 12 12 13 12 13 15 18 19 22 24 25 26 29 32 32 32 31 27 32 30 26 25 25 23 22 21 20 18 15 13 10 9 11 13 12 10 10 10 11 9 8
7 8 10 11 12 12 12 15 15 17 19 20 22 23 27 29 30 31 31 31 32 29 26 24 23 22 21 20 19 18 15 11 10 10 12 13 13 15 14 18 12 12 12
5 5 7 8 10 10 10 11 12 12 14 16 18 21 23 26 28 28 31 32 32 29 27 25 23 22 20 19 18 16 13 9 11 13 13 13 13 14 15 20 20 18 17
4 4 4 6 6 7 9 10 11 10 14 14 15 16 18 21 24 26 25 28 27 28 29 26 22 20 19 17 14 14 11 12 15 15 15 15 14 14 15 15 14 16 18
7 5 3 3 4 6 9 10 10 11 14 15 17 17 18 20 22 21 17 15 15 18 21 19 19 18 15 14 13 10 13 16 17 17 19 19 15 12 11 12 13 16 18
8 6 5 3 3 4 7 9 11 13 15 16 16 15 17 18 19 20 18 15 18 19 18 19 18 16 14 12 13 13 14 18 18 19 18 15 14 14 16 17 17 16 18
7 6 3 1 2 4 6 7 9 11 14 16 18 18 18 18 20 20 20 20 20 19 18 16 16 15 14 16 14 16 18 19 19 18 18 17 15 13 14 14 15 15 18
10 8 5 3 1 2 5 6 5 7 10 11 10 13 12 13 17 22 23 22 20 20 20 21 20 19 19 19 19 21 19 18 17 16 17 17 15 16 15 14 14 15 16
13 11 10 8 6 4 4 4 4 3 2 5 8 10 9 11 15 19 23 23 20 19 19 22 22 21 21 21 21 21 19 17 17 17 18 18 18 17 15 15 15 15 16
12 12 10 9 6 4 2 2 4 6 5 5 4 6 6 8 11 14 18 17 18 20 22 22 24 23 21 22 20 19 19 17 18 17 18 17 17 17 16 15 13 14 15
13 11 10 9 7 6 4 1 2 4 5 5 5 3 3 4 8 12 17 19 17 19 21 22 22 20 20 20 19 18 19 19 18 17 18 18 16 15 15 14 14 15 14
13 11 8 8 8 6 4 2 1 3 5 6 7 7 6 7 10 14 17 19 21 21 20 20 21 22 22 20 19 18 18 17 17 17 18 17 15 15 16 15 15 15 14
13 11 10 8 8 7 5 2 1 4 6 7 8 10 11 12 14 17 18 19 20 20 21 22 23 22 21 19 19 19 19 20 19 18 17 17 17 17 15 15 16 15 15
12 14 15 14 12 10 7 4 3 2 4 6 7 6 6 11 14 17 19 21 22 22 23 23 22 21 19 21 21 21 22 22 21 20 19 18 17 17 15 14 14 13 13
12 12 13 13 12 10 9 8 6 5 5 6 7 8 9 12 15 15 16 17 17 18 18 18 19 20 20 21 20 20 21 22 21 19 19 18 17 16 15 15 14 13 13
12 12 11 10 9 9 9 9 8 7 6 7 8 9 10 10 11 14 15 15 16 17 17 17 18 20 21 21 21 21 21 21 21 20 19 19 19 18 17 17 17 16 15
12 11 11 11 10 9 8 8 8 9 9 9 10 10 11 12 13 13 15 16 17 17 18 18 19 19 19 20 21 21 20 20 21 21 21 21 21 20 20 19 19 19 18
13 12 11 11 10 10 9 9 8 8 9 10 10 12 13 14 15 15 15 16 17 17 18 18 18 18 18 19 20 20 21 21 21 21 21 21 22 22 21 21 19 19 18
Wind_Direction
225 225 224 223 222 222 221 225 224 224 221 220 226 228 224 218 214 213 211 209 203 203 203 205 201 200 197 192 190 188 188 188 177 159 199 231 222 264 292 333 335 296 321
230 231 228 231 228 225 224 224 226 228 229 224 224 225 223 219 214 210 207 206 204 201 201 198 199 196 195 194 193 191 192 190 186 187 191 211 227 258 303 309 302 273 307
236 234 232 232 229 225 227 226 226 228 229 229 227 223 224 220 214 212 210 206 202 208 201 199 197 197 194 193 195 194 196 195 195 193 194 211 225 243 289 287 303 282 270
235 232 234 236 235 233 234 238 238 234 229 228 229 231 231 225 217 210 208 209 206 203 202 202 198 199 200 195 196 199 197 198 199 209 213 222 227 225 282 277 295 314 300
228 226 228 225 226 231 238 241 241 240 238 235 231 228 228 224 219 211 206 208 203 197 197 199 198 198 201 202 199 198 199 199 201 207 217 222 227 213 249 274 303 312 313
228 232 229 222 224 229 238 243 243 244 240 236 230 231 227 226 219 212 211 202 207 197 191 189 196 193 195 198 199 202 203 198 199 205 220 223 230 243 247 252 291 311 314
231 232 224 223 219 220 223 227 229 230 232 232 232 229 227 223 217 217 213 206 207 200 196 190 190 193 196 195 195 195 196 200 214 219 225 229 241 240 253 256 268 263 264
231 231 232 233 233 231 229 222 224 228 234 233 233 232 227 222 219 216 213 205 209 207 205 199 196 192 194 194 195 199 206 214 225 226 243 253 252 250 250 260 258 279 285
244 249 249 242 238 235 241 242 240 231 229 232 232 231 228 222 215 209 209 201 208 199 203 203 202 197 197 196 197 201 208 223 230 233 252 257 255 252 262 240 252 275 281
271 266 261 252 241 237 243 242 242 242 240 232 228 226 223 220 211 208 200 201 203 195 195 197 197 197 200 200 201 203 213 226 239 249 251 249 243 238 237 245 248 251 259
312 285 261 252 248 255 255 250 249 246 241 233 228 224 219 216 208 204 205 202 204 196 193 195 195 197 201 204 206 213 226 240 254 261 263 256 252 250 242 239 253 249 252
349 316 286 267 259 250 246 244 235 224 228 219 214 210 205 202 208 203 209 211 209 206 206 202 199 201 206 210 215 224 230 236 261 257 258 261 258 255 259 248 253 257 258
33 17 327 254 247 247 235 227 219 218 218 213 207 205 206 206 205 205 198 208 208 212 223 206 200 202 201 208 218 229 227 248 253 245 252 259 263 271 256 247 262 270 266
60 48 26 333 266 243 243 238 226 216 217 214 206 205 209 203 200 193 189 205 204 213 208 203 197 194 201 217 226 233 242 250 245 248 254 258 253 247 255 261 265 266 264
36 40 49 126 218 217 232 249 245 245 237 228 225 217 207 200 206 213 215 213 213 210 201 193 188 199 211 224 240 244 241 241 240 243 248 253 256 259 256 252 259 264 253
31 25 16 357 311 231 219 189 215 244 243 235 235 231 221 228 233 226 217 217 216 206 200 202 209 218 230 241 239 238 237 239 241 243 243 242 241 247 252 254 253 260 267
31 27 24 13 356 335 288 264 206 52 153 198 219 239 240 232 233 228 223 215 200 192 209 219 226 232 240 241 238 237 238 245 250 248 247 245 244 240 239 246 252 257 265
45 40 32 28 19 349 298 242 224 196 162 137 171 203 221 231 225 208 197 191 196 209 223 232 232 241 245 241 238 244 246 245 250 250 250 247 244 246 247 248 248 254 261
53 59 53 47 42 40 24 337 240 224 210 206 205 213 195 196 194 198 193 201 215 222 230 235 246 256 258 254 252 249 252 249 248 246 247 246 248 246 246 248 253 256 260
48 49 53 60 69 68 65 46 263 243 244 246 230 234 229 204 201 207 212 221 235 241 247 255 267 272 263 258 257 253 252 253 251 251 251 252 249 242 245 248 253 262 267
43 40 42 45 42 41 44 35 312 286 259 261 258 256 256 240 231 231 235 241 249 258 263 264 266 263 261 258 258 257 256 256 255 255 252 249 248 249 248 253 259 260 266
43 42 40 40 30 28 27 14 354 293 258 248 256 259 231 249 249 251 254 257 260 262 265 266 265 263 261 263 260 258 257 256 255 253 251 250 249 249 252 253 255 258 268
40 38 35 33 30 29 28 20 9 347 318 295 286 278 260 254 265 264 267 269 270 271 269 265 262 262 260 261 261 258 256 258 260 260 256 253 250 253 254 255 257 258 258
33 33 32 23 29 28 17 9 0 351 338 318 302 298 293 285 267 270 273 273 274 273 270 267 263 262 264 263 261 258 256 256 256 254 252 250 251 254 255 255 254 254 255
20 21 20 15 10 7 4 0 350 341 332 323 313 303 297 291 285 277 273 274 276 274 273 272 272 270 268 267 266 265 264 260 257 255 253 252 253 254 257 258 257 256 255
8 6 1 352 350 345 339 333 324 313 310 309 303 297 292 288 285 284 282 279 278 279 279 277 276 275 272 269 267 267 265 262 258 258 260 260 260 262 261 261 264 262 262